Location: Unspecified
(0.0000°N, 0.0000°E)
Time: 10:37:53
(UTC+02:00)

SWIFT - Visible Passes

Search period start: 03 August 2015 00:00
Search period end: 13 August 2015 00:00
Orbit: 553 x 569 km, 20.6° (Epoch: 02 August)

Date Brightness Start Highest point End Pass type
(mag) Time Alt. Az. Time Alt. Az. Time Alt. Az.
03 Aug 4.4 06:49:19 10° NW 06:52:43 23° NNE 06:56:10 10° ENE visible
03 Aug 2.5 20:28:49 10° WSW 20:33:06 78° NNW 20:37:24 10° ENE visible
03 Aug 4.5 22:11:57 10° WNW 22:14:57 21° NNW 22:14:57 21° NNW visible
04 Aug 3.9 06:46:03 13° NW 06:49:16 32° NNE 06:53:06 10° E visible
04 Aug 3.1 20:25:25 10° W 20:29:35 53° NNW 20:33:46 10° NE visible
04 Aug 4.8 22:09:07 10° WNW 22:11:52 16° NNW 22:12:12 16° NNW visible
05 Aug 3.3 06:43:22 22° NW 06:45:47 45° NNE 06:49:53 10° E visible
05 Aug 5.1 22:06:39 10° NW 22:08:28 12° NNW 22:09:21 12° N visible
06 Aug 2.6 06:40:43 37° NW 06:42:16 66° NNE 06:46:31 10° ESE visible
07 Aug 2.2 06:38:02 61° WNW 06:38:45 84° SSW 06:43:03 10° ESE visible
08 Aug 2.4 06:35:19 57° SSW 06:35:19 57° SSW 06:39:27 10° ESE visible
09 Aug 3.3 06:32:32 35° S 06:32:32 35° S 06:35:45 10° SE visible
10 Aug 4.0 06:29:40 23° SSE 06:29:40 23° SSE 06:31:56 10° SE visible
11 Aug 4.5 06:26:43 16° SSE 06:26:43 16° SSE 06:28:00 10° SSE visible
12 Aug 4.9 06:23:41 11° SSE 06:23:41 11° SSE 06:23:55 10° SSE visible
